Regional Weather Roundup
Issued by NWS

Home | Current Version | Previous Version | Text Only | Print | Product List | Glossary Off
Versions: 1 2 3 4 5 6 7 8 9 10 11 12 13 14 15 16 17 18 19 20 21 22 23 24 25 26 27 28 29 30 31 32 33 34 35 36 37 38 39 40 41 42 43 44 45 46 47 48 49 50

000
ASUS43 KLOT 250608
RWRIL

ILLINOIS REGIONAL WEATHER ROUNDUP
NATIONAL WEATHER SERVICE CHICAGO/ROMEOVILLE IL
100 AM CDT WED MAY 25 2016

NOTE: "FAIR" INDICATES FEW OR NO CLOUDS BELOW 12,000 FEET WITH NO
SIGNIFICANT WEATHER AND/OR OBSTRUCTIONS TO VISIBILITY.

* THESE STATIONS ARE NOT UNDER NWS QUALITY CONTROL. THEY ALSO MAY NOT
  REPORT WEATHER SUCH AS PRECIPITATION OR FOG.

ILZ001-002-007-009-015-016-024-250700-
NORTHWEST ILLINOIS

CITY           SKY/WX    TMP DP  RH WIND       PRES   REMARKS
MOLINE         CLEAR     70  61  73 CALM      29.95R
6HR MIN TEMP:  68; 6HR MAX TEMP:  84;

STERLING*      CLEAR     71  62  73 CALM      29.97R
SAVANNA*       CLEAR     66  60  81 CALM      29.96R
$$

ILZ003-004-008-010-011-017-018-250700-
NORTH CENTRAL ILLINOIS

CITY           SKY/WX    TMP DP  RH WIND       PRES   REMARKS
ROCKFORD       MOCLDY    70  59  68 CALM      29.97R
6HR MIN TEMP:  69; 6HR MAX TEMP:  85; 6HR PCP: TRACE;

FREEPORT*      PTCLDY    70  60  71 SW8       29.97R
ROCHELLE*      CLOUDY    68  58  71 S7        29.98R
DE KALB*       CLOUDY    68  59  73 S8        29.99R
$$

ILZ005-006-012>014-019>023-250700-
NORTHEAST ILLINOIS

CITY           SKY/WX    TMP DP  RH WIND       PRES   REMARKS
CHICAGO-OHARE  CLOUDY    73  59  61 S9        29.97R
6HR MIN TEMP:  72; 6HR MAX TEMP:  84;

CHICAGO-MIDWAY CLOUDY    75  58  55 S10       29.98R
6HR MIN TEMP:  75; 6HR MAX TEMP:  86;

AURORA         CLOUDY    72  60  66 S9        29.98R
6HR MIN TEMP:  72; 6HR MAX TEMP:  84;

LANSING*       MOCLDY    70  56  62 S6        30.00R
JOLIET*        MOCLDY    74  63  67 S8        29.99R
WAUKEGAN       CLOUDY    65  57  75 CALM      29.96S
6HR MIN TEMP:  64; 6HR MAX TEMP:  73;

DUPAGE AIRPORT CLOUDY    70  58  65 S7        29.97R
6HR MIN TEMP:  69; 6HR MAX TEMP:  83;

KANKAKEE*      MOCLDY   N/A N/A N/A S6        30.01R
WHEELING       MOCLDY    73  58  59 S10       29.97S
6HR MIN TEMP:  73; 6HR MAX TEMP:  85;

MORRIS*        MOCLDY    73  61  66 S8        29.98R
ROMEOVILLE*    CLOUDY    71  59  66 S8        29.99S
NORTHERLY ISL    N/A     75  57  53 S9          N/A
NORTHERLY ISL    N/A     75  57  53 S9          N/A
$$

LMZ740>746-250700-
SOUTHERN LAKE MICHIGAN

STATION/POSITION SKY/WX   TEMP    WIND        PRES    VSBY  WAVE
                          AIR SEA DIR/SP/G                  HT/PER
                          (F)     (DEG/KT/KT) (MB)    (MI)  (FT/S)
SOUTHERN BUOY              59 49  160/  8/  8 1014.3F         0
WILMETTE HARBOR            66 57  220/  8/ 10   N/A           1/ 2
HARRISON CRIB              76     200/ 18/ 19   N/A
BURNHAM HARBOR             75     200/ 10/ 14   N/A
CALUMET HARBOR             75     190/  7/ 13 1014.7R
BURNS HARBOR               73     190/ 12/ 14 1015.9S
MICHIGAN CITY              74     170/ 13/ 15   N/A
MICHIGAN CITY 6N           66 57  200/  8/ 10   N/A           1
ST. JOSEPH                 63 58  190/  6/  8   N/A           1/ 2
$$

ILZ025>027-034>036-040-047-049-050-058-095>099-250700-
WEST-CENTRAL ILLINOIS

CITY           SKY/WX    TMP DP  RH WIND       PRES   REMARKS
QUINCY         CLOUDY    64  61  90 S7        29.98R
GALESBURG*     CLEAR     67  61  83 S5        29.98R
MACOMB*        CLEAR     68  63  83 S9        30.00R
JACKSONVILLE*  CLOUDY    67  61  79 S7        30.00R
PITTSFIELD*    CLOUDY    65  63  91 S5        30.00S
$$

ILZ028>032-037-038-041>044-048-051>054-059>061-250700-
CENTRAL ILLINOIS

CITY           SKY/WX    TMP DP  RH WIND       PRES   REMARKS
PONTIAC        CLOUDY    73  64  72 S12       30.00R
BLOOMINGTON    MOCLDY    69  64  84 S14       30.02R
DECATUR        CLOUDY    68  62  81 SW6       30.01S
PEORIA         PTCLDY    70  63  78 S7        29.99R
6HR MIN TEMP:  70; 6HR MAX TEMP:  80;

LACON*         CLOUDY    71  62  73 CALM      29.97R
LINCOLN*       CLOUDY    70  66  86 S5        30.00R
SPRINGFIELD    PTCLDY    69  63  81 S9        30.01R
6HR MIN TEMP:  69; 6HR MAX TEMP:  81;

TAYLORVILLE    CLOUDY    66  62  86 S8        30.02R
6HR MIN TEMP:  65; 6HR MAX TEMP:  79;

$$

ILZ033-039-045-046-055>057-062-063-250700-
EAST-CENTRAL ILLINOIS

CITY           SKY/WX    TMP DP  RH WIND       PRES   REMARKS
CHAMPAIGN      CLOUDY    68  58  70 S9        30.01S
RANTOUL*       MOCLDY    70  60  70 S5        30.01S
MATTOON        CLOUDY    68  59  73 S5        30.02R
PARIS*         CLOUDY    68  58  70 S5        30.03S
$$

ILZ079-100>102-250700-
SOUTHWEST ILLINOIS

CITY           SKY/WX    TMP DP  RH WIND       PRES   REMARKS
ALTON          PTCLDY    64  62  92 S5        30.03R
CAHOKIA*       CLOUDY    66  62  87 S6        30.02R
SPARTA*        MOCLDY    64  63  94 CALM      30.04S
$$

ILZ064>066-069>071-074>076-080>082-084>086-088>090-092>094-250700-
SOUTH-CENTRAL ILLINOIS

CITY           SKY/WX    TMP DP  RH WIND       PRES   REMARKS
CARBONDALE     PTCLDY    65  62  90 S5        30.03S
6HR MIN TEMP:  64; 6HR MAX TEMP:  73;

CAIRO*         CLOUDY    66  64  93 NW5       30.04R
EFFINGHAM*     CLOUDY    65  64  97 SE3       30.04S
MARION         CLOUDY    66  63  88 S3        30.04S
MT. VERNON     CLOUDY    64  59  82 CALM      30.04R
CENTRALIA*     CLOUDY    66  64  94 S6        30.03R
SALEM*         CLOUDY    67  64  89 CALM      30.03R
METROPOLIS*    PTCLDY    65  65  97 CALM      30.04S
$$

ILZ067-068-072-073-078-083-087-091-250700-
SOUTHEAST ILLINOIS

CITY           SKY/WX    TMP DP  RH WIND       PRES   REMARKS
LAWRENCEVILLE  CLOUDY    68  61  78 S5        30.03F
FLORA*         PTCLDY    66  64  90 SW5       30.03S
FAIRFIELD*     CLOUDY    66  63  88 CALM      30.03R
HARRISBURG*    MOCLDY    64  62  94 CALM      30.04S
ROBINSON*      CLOUDY    64  60  87 S3        30.04S
CARMI*         PTCLDY    63  62  96 CALM      30.03S
$$

ABBREVIATIONS USED IN REMARKS
   TC - TEMPERATURE IN CELSIUS
  WCI - WIND CHILL INDEX
   HX - HEAT INDEX
  VSB - VISIBILITY
$$




USA.gov is the U.S. government's official web portal to all federal, state and local government web resources and services.